Погода в Щучинске

Погода в Щучинске : погода сейчас, прогноз погоды и архив. Всё, что Вы хотите узнать о погоде в Щучинске!

Поиск расширенной информации на нашем сайте:

Другие новости

Новости СМИ2

Главная страница сайта

Новости сайта

03.07.2017

Напоминаем, что на нашем специализированном сайте Метеоцентр.Азия вы можете получить высокодетализированные автоматические прогнозы погоды по пунктам России, СНГ и мира в авиационном формате (включающие направление и скорость ветра, видимость, явления погоды, количество и форму облачности, нижнюю и верхнюю границу облачности).


Погода в Щучинске - сегодня

Время (UTC), дата Ветер
(°,м/с) 
Видим.   Явления Облачность Т
(°С)
Тd
(°С)
f(%) Тe
(°С)
Pmin
(гПа)
dP
(гПа)
Po
(мм)
O2
(г/м3)
Тmin Tmax R s Состояние
почвы
03 22.11.17 170 (Ю) 20000 м    10/0 верхняя 
[Ci fib]
-7.7 -10.1 83 -9  1033  -0.4  737  306        равномерный
сухой снег
100% 
06 22.11.17 150 (ЮВ) 20000 м    8/0 средняя, верхняя 
[Ac lent|Cc]
-5.4 -9 76 -8  1032.5  -0.1  737  304  -8.5         
09 22.11.17 150 (ЮВ) 20000 м    6/0 средняя, верхняя 
[Ac lent|Cc]
-4.2 -8.3 73 -5  1031.1  -1.1  736  302           
12 22.11.17 150 (ЮВ) 20000 м    10/0 средняя, верхняя 
[Ac lent|Cc]
-4.6 -8.5 74 -6  1030.7  -0.4  735  302           
15 22.11.17 150 (ЮВ) н/о    10/0 средняя, верхняя 
[Ac lent|Cc]
-2.8 -8.5 65 -2  1029.4  -0.9  735  300    -2.5       
18 22.11.17 150 (ЮВ) н/о    8/0 средняя, верхняя 
[Ac trans|Ci sp]
-3.7 -8.7 68 -3  1029.3  -0.3  735  301    -2.5       
21 22.11.17 140 (ЮВ) н/о    3/0 верхняя 
[Ci sp]
-4.6 -8.7 73 -4  1028.7  -0.7  734  302           
00 23.11.17 090 (В) н/о    ясно 
-4.7 -9.1 71 -4  1028.4  -0.3  734  302           
03 23.11.17 080 (В) 20000 м    3/0 средняя, верхняя 
[Ac trans|Cs]
-7 -10.2 78 -7  1028.9  734  304        равномерный
сухой снег
100% 
06 23.11.17 140 (ЮВ) 20000 м    ясно 
+0.7 -8.3 51 1027.6  0.2  734  296  -8.6         
09 23.11.17 120 (ЮВ) 20000 м    ясно 
+3.5 -8.2 42 +3  1026.5  -0.6  734  293           
12 23.11.17 120 (ЮВ) 20000 м    ясно 
+0.6 -10.5 43 +1  1026.7  -0.3  733  296           
15 23.11.17 100 (В) н/о    ясно 
+1.8 -9.7 42 -1  1026.3  -0.2  733  294    +4.6       
18 23.11.17 120 (ЮВ) н/о    ясно 
+1.1 -11.3 39 1026.2  -0.2  733  295    +4.6       
21 23.11.17 130 (ЮВ) н/о    ясно 
-0.5 -10.4 47 1025.9  -0.6  733  297           
00 24.11.17 140 (ЮВ) н/о    ясно 
-0.8 -13 39 -2  1025.4  -0.5  732  297           
03 24.11.17 тихо ()   н/о    ясно 
-2.7 -13.5 43 -3  1025.5  -0.3  732  299        равномерный
сухой снег
100% 
06 24.11.17 090 (В) 20000 м    ясно 
+1.4 -12.4 35 +2  1024.1  -0.6  731  294  -3.5         
09 24.11.17 160 (Ю) 20000 м    ясно 
+3 -9.9 38 +4  1022.8  -0.9  731  292           
12 24.11.17 120 (ЮВ) 20000 м    ясно 
-0.9 -11.6 44 1023.1  -0.4  731  296           
15 24.11.17 тихо ()   н/о    ясно 
-3.2 -11.4 53 -3  1022.4  -1.1  730  299    +4.6       
18 24.11.17 тихо ()   н/о    ясно 
-3.7 -11.4 55 -4  1021.7  -0.7  729  299    +4.6       
21 24.11.17 тихо ()   н/о    ясно 
-5.8 -10.6 69 -6  1021  -1.1  728  301           
00 25.11.17 тихо ()   н/о    ясно 
-6.6 -11.3 69 -7  1020  -1.1  728  301           
03 25.11.17 тихо ()   20000 м    ясно 
-10.5 -13.6 78 -11  1020.5  -0.2  727  306        равномерный
сухой снег
100% 
Время (UTC), дата Ветер
(°,м/с) 
Видим.   Явления Облачность Т
(°С)
Тd
(°С)
f(%) Тe
(°С)
Pmin
(гПа)
dP
(гПа)
Po
(мм)
O2
(г/м3)
Тmin Tmax R s Состояние
почвы

Для получения пояснительной информации подведите курсор к названию столбца.

ПОГОДА в Щучинске - архив

Всё, что Вы хотите узнать о погоде в Щучинске - удобно и подробно!

Выберите нужную дату (начиная с 1 января 2015* года) и нажмите кнопку "Найти".
Будут отображены архивные сводки погоды по пункту Щучинск, начиная с указанной даты.


Отображать данные в формате CSV (для использования в таблицах Excel)


Внимание! Наш архив погоды предназначен исключительно для личного некоммерческого использования в познавательных целях. Если Вам необходимы официальные справки о состоянии погоды (для производственных, юридических, коммерческих и т.п. целей), обращайтесь в органы Росгидромета.

*Примечание: данная дата относится к архиву по метеостанциям СССР (Россия, СНГ, Балтия).
Архив по метеостанциям Зарубежной Европы и Азии (кроме Китая) хранится 10 дней, по другим регионам земного шара (Китай, Африка, Америка, Австралия, Океания) - 1 день.

Щучинск - район местоположения метеостанции


Название, широта, долгота, высота метеостанции:
Щучинск 52.9°ш. 70.2°д. 395 м над ур. моря [Казахстан]

Дополнительная информация

В oтличие oт бoльшинства пoгoдных сайтoв мы публикуем пoдрoбную метеoинфoрмацию в детальнoм прoфессиoнальнoм фoрмате.

Характеристики температуры и влажнoсти вoздуха измеряются на высoте 2 м в тени вдали oт зданий и деревьев.
Скoрoсть ветра измеряется на высoте 10 м (на урoвне рoста челoвека скoрoсть ветра ниже в 1.5-2 раза). Если метеoстанция нахoдится в гoрoде или в лесу, тo скoрoсть ветра занижена на 2-4 м/с пo сравнению с oткрытым местoм. Скoрoсть ветра над акватoриями крупных рек и oзёр, а также на вершинах хoлмoв на 2-5 м/с выше, чем в oбычных услoвиях.
Атмoсфернoе давление в разных тoчках местнoсти мoжет значительнo oтличаться oт давления на метеoстанции, в зависимoсти oт услoвий рельефа (при пoдъёме на 10 м давление пoнижается примернo на 1 мм рт.ст.).